Weather History for EGVA - January, 2013

Change the Weather History Date:

Saturday, January 12, 2013

  Actual Average Record
Temperature  
Mean Temperature 37 °F -  
Max Temperature 39 °F 46 °F - (-1)
Min Temperature 35 °F 38 °F - (-1)
Degree Days  
Heating Degree Days 28    
Moisture  
Dew Point 36 °F    
Average Humidity 94    
Maximum Humidity 100    
Minimum Humidity 71    
Precipitation  
Precipitation 0.13 in - - ()
Sea Level Pressure  
Sea Level Pressure 29.85 in    
Wind  
Wind Speed 11 mph ()    
Max Wind Speed 18 mph    
Max Gust Speed 30 mph    
Visibility 5.9 miles    
Events Rain    
Averages and records for this station are not official NWS values.
T = Trace of Precipitation, MM = Missing Value Source: Averaged Metar Reports

Daily Weather History Graph

Daily Weather History Graph

Search for Another Location

Airport or City:

Trip Planner

Search our weather history database for the weather conditions in past years. The results will help you decide how hot, cold, wet, or windy it might be!

Date:

Astronomy

Jan. 12, 2013 Rise Set
Actual Time 8:09 AM GMT 4:22 PM GMT
Civil Twilight 7:30 AM GMT 5:01 PM GMT
Nautical Twilight 6:47 AM GMT 5:43 PM GMT
Astronomical Twilight 6:07 AM GMT 6:24 PM GMT
Moon 8:06 AM GMT (1/12) 5:47 PM GMT (1/12)
Length of Visible Light 9h 31m
Length of Day
8h 13m
New Moon, 1% of the Moon is Illuminated
Jan 12
New Moon
Jan 18
First Quarter
Jan 27
Full
Feb 3
Last Quarter
Feb 10
New

Hourly Weather History & Observations

Time (GMT) Temp. Windchill Dew Point Humidity Pressure Visibility Wind Dir Wind Speed Gust Speed Precip Events Conditions
12:18 AM 39.2 °F 33.6 °F 39.2 °F 100% 29.92 in 5.0 mi East 8.1 mph - N/A   Overcast
12:23 AM 39.2 °F 32.5 °F 39.2 °F 100% 29.91 in 3.7 mi East 10.4 mph - N/A   Overcast
12:37 AM 37.4 °F 30.8 °F 37.4 °F 100% 29.91 in 5.0 mi East 9.2 mph - N/A   Overcast
12:56 AM 37.4 °F 30.8 °F 37.4 °F 100% 29.90 in 6.2 mi East 9.2 mph - N/A   Overcast
12:58 AM 37.4 °F 31.4 °F 37.4 °F 100% 29.92 in 6.2 mi East 8.1 mph - 0.00 in   Overcast
1:23 AM 37.4 °F 31.4 °F 37.4 °F 100% 29.90 in 6.2 mi East 8.1 mph - N/A   Overcast
1:40 AM 37.4 °F 31.4 °F 37.4 °F 100% 29.89 in 6.2 mi East 8.1 mph - N/A   Overcast
1:58 AM 37.8 °F 31.8 °F 37.6 °F 99% 29.90 in 6.2 mi East 8.1 mph - 0.01 in Rain Light Rain
2:45 AM 37.4 °F 30.3 °F 37.4 °F 100% 29.87 in 5.0 mi East 10.4 mph - N/A Rain Light Rain
2:46 AM 37.4 °F 30.3 °F 37.4 °F 100% 29.87 in 5.0 mi East 10.4 mph - N/A Rain Light Rain
2:48 AM 37.4 °F 30.8 °F 37.4 °F 100% 29.87 in 3.7 mi East 9.2 mph - N/A Rain Light Rain
2:58 AM 37.4 °F 30.3 °F 37.2 °F 99% 29.88 in 3.7 mi East 10.4 mph - 0.02 in Rain Light Rain
3:34 AM 37.4 °F 30.3 °F 37.4 °F 100% 29.85 in 3.7 mi East 10.4 mph - N/A Rain Light Rain
3:40 AM 37.4 °F 29.8 °F 37.4 °F 100% 29.85 in 5.0 mi East 11.5 mph - N/A Rain Light Rain
3:45 AM 37.4 °F 29.3 °F 37.4 °F 100% 29.84 in 5.0 mi East 12.7 mph - N/A Rain Light Rain
3:54 AM 37.4 °F 29.3 °F 37.4 °F 100% 29.84 in 3.7 mi East 12.7 mph - N/A Rain Light Rain
3:58 AM 37.4 °F 30.3 °F 37.2 °F 99% 29.86 in 5.0 mi East 10.4 mph - 0.08 in Rain Light Rain
3:59 AM 37.4 °F 30.3 °F 37.4 °F 100% 29.84 in 5.0 mi East 10.4 mph - N/A Rain Light Rain
4:10 AM 37.4 °F 30.3 °F 37.4 °F 100% 29.83 in 5.6 mi East 10.4 mph - N/A   Overcast
4:12 AM 37.4 °F 29.3 °F 37.4 °F 100% 29.83 in 6.2 mi East 12.7 mph - N/A   Overcast
4:15 AM 37.4 °F 29.8 °F 37.4 °F 100% 29.83 in 6.2 mi East 11.5 mph - N/A   Overcast
4:17 AM 37.4 °F 29.8 °F 37.4 °F 100% 29.83 in 6.2 mi East 11.5 mph - N/A   Overcast
4:18 AM 37.4 °F 29.3 °F 37.4 °F 100% 29.83 in 6.2 mi East 12.7 mph - N/A   Overcast
4:19 AM 37.4 °F 29.3 °F 37.4 °F 100% 29.83 in 6.2 mi East 12.7 mph - N/A   Overcast
4:37 AM 37.4 °F 29.8 °F 37.4 °F 100% 29.82 in 6.2 mi East 11.5 mph - N/A   Overcast
4:58 AM 37.8 °F 29.8 °F 37.6 °F 99% 29.84 in 6.2 mi East 12.7 mph - 0.01 in   Overcast
5:04 AM 37.4 °F 29.8 °F 37.4 °F 100% 29.82 in 6.2 mi East 11.5 mph - N/A   Overcast
5:29 AM 37.4 °F 29.8 °F 37.4 °F 100% 29.81 in 6.2 mi East 11.5 mph - N/A   Overcast
5:33 AM 37.4 °F 30.3 °F 37.4 °F 100% 29.81 in 6.2 mi East 10.4 mph - N/A   Overcast
5:35 AM 37.4 °F 29.3 °F 37.4 °F 100% 29.81 in 6.2 mi East 12.7 mph - N/A   Overcast
5:45 AM 37.4 °F 29.3 °F 37.4 °F 100% 29.81 in 6.2 mi East 12.7 mph - N/A   Overcast
5:46 AM 37.4 °F 29.8 °F 37.4 °F 100% 29.81 in 6.2 mi East 11.5 mph - N/A Rain Light Rain
5:55 AM 37.4 °F 28.5 °F 37.4 °F 100% 29.80 in 6.2 mi East 15.0 mph 19.6 mph N/A   Overcast
5:58 AM 37.4 °F 28.9 °F 37.4 °F 100% 29.82 in 6.2 mi East 13.8 mph 19.6 mph 0.00 in   Overcast
5:59 AM 37.4 °F 28.5 °F 37.4 °F 100% 29.80 in 6.2 mi East 15.0 mph 19.6 mph N/A   Overcast
6:12 AM 39.2 °F 31.2 °F 37.4 °F 93% 29.80 in 6.2 mi East 13.8 mph 19.6 mph N/A   Overcast
6:22 AM 39.2 °F 30.5 °F 37.4 °F 93% 29.80 in 6.2 mi East 16.1 mph - N/A   Overcast
6:58 AM 38.5 °F 30.3 °F 38.1 °F 99% 29.82 in 6.2 mi East 13.8 mph - N/A   Overcast
7:10 AM 39.2 °F 31.6 °F 37.4 °F 93% 29.80 in 6.2 mi East 12.7 mph - N/A   Overcast
7:38 AM 39.2 °F 32.0 °F 37.4 °F 93% 29.80 in 6.2 mi East 11.5 mph 27.6 mph N/A   Overcast
7:56 AM 37.4 °F 27.8 °F 37.4 °F 100% 29.81 in 6.2 mi East 17.3 mph 23.0 mph N/A   Overcast
7:58 AM 37.4 °F 27.5 °F 37.4 °F 100% 29.83 in 6.2 mi East 18.4 mph 23.0 mph N/A   Overcast
8:01 AM 37.4 °F 29.3 °F 37.4 °F 100% 29.81 in 6.2 mi East 12.7 mph 23.0 mph N/A   Overcast
8:17 AM 37.4 °F 27.8 °F 37.4 °F 100% 29.81 in 6.2 mi East 17.3 mph 25.3 mph N/A   Overcast
8:18 AM 37.4 °F 28.2 °F 37.4 °F 100% 29.81 in 6.2 mi East 16.1 mph 25.3 mph N/A   Overcast
8:51 AM 37.4 °F 28.5 °F 37.4 °F 100% 29.81 in 6.2 mi East 15.0 mph 24.2 mph N/A   Overcast
8:53 AM 37.4 °F 28.2 °F 37.4 °F 100% 29.81 in 6.2 mi East 16.1 mph 24.2 mph N/A   Overcast
8:58 AM 37.4 °F 28.5 °F 37.4 °F 100% 29.83 in 6.2 mi East 15.0 mph 24.2 mph 0.00 in Rain Light Rain
9:05 AM 37.4 °F 27.8 °F 37.4 °F 100% 29.81 in 6.2 mi East 17.3 mph 24.2 mph N/A Rain Light Rain
9:09 AM 37.4 °F 28.2 °F 37.4 °F 100% 29.81 in 6.2 mi East 16.1 mph 24.2 mph N/A Rain Light Rain
9:15 AM 37.4 °F 27.5 °F 37.4 °F 100% 29.81 in 6.2 mi East 18.4 mph 23.0 mph N/A Rain Light Rain
9:16 AM 37.4 °F 27.5 °F 37.4 °F 100% 29.81 in 6.2 mi East 18.4 mph 23.0 mph N/A   Overcast
9:40 AM 37.4 °F 28.2 °F 37.4 °F 100% 29.81 in 6.2 mi East 16.1 mph 23.0 mph N/A   Overcast
9:41 AM 37.4 °F 27.8 °F 37.4 °F 100% 29.81 in 6.2 mi East 17.3 mph 23.0 mph N/A   Overcast
9:48 AM 37.4 °F 27.5 °F 37.4 °F 100% 29.81 in 6.2 mi East 18.4 mph 24.2 mph N/A Rain Light Rain
9:58 AM 37.9 °F 28.5 °F 36.9 °F 96% 29.83 in 6.2 mi East 17.3 mph 24.2 mph 0.01 in Rain Light Rain
10:00 AM 37.4 °F 28.2 °F 37.4 °F 100% 29.81 in 6.2 mi East 16.1 mph 24.2 mph N/A   Overcast
10:25 AM 37.4 °F 28.5 °F 35.6 °F 93% 29.82 in 6.2 mi East 15.0 mph 24.2 mph N/A   Overcast
10:58 AM 38.5 °F 29.6 °F 36.0 °F 91% 29.84 in 6.2 mi East 16.1 mph 27.6 mph 0.00 in   Overcast
11:58 AM 39.0 °F 29.9 °F 35.1 °F 86% 29.83 in 6.2 mi East 17.3 mph 25.3 mph N/A   Overcast
12:58 PM 39.2 °F 31.2 °F 33.6 °F 80% 29.82 in 6.2 mi East 13.8 mph 21.9 mph N/A   Overcast
1:58 PM 39.4 °F 31.8 °F 31.8 °F 74% 29.83 in 6.2 mi East 12.7 mph - N/A   Overcast
2:58 PM 39.4 °F 31.1 °F 30.7 °F 71% 29.84 in 6.2 mi East 15.0 mph - N/A   Overcast
3:33 PM 39.2 °F 30.5 °F 32.0 °F 75% 29.83 in 6.2 mi East 16.1 mph - N/A   Overcast
3:58 PM 39.2 °F 29.8 °F 30.7 °F 72% 29.86 in 6.2 mi East 18.4 mph 29.9 mph N/A   Overcast
4:58 PM 38.5 °F 29.2 °F 32.2 °F 78% 29.89 in 6.2 mi East 17.3 mph - N/A   Overcast
5:07 PM 39.2 °F 30.5 °F 32.0 °F 75% 29.87 in 6.2 mi East 16.1 mph 23.0 mph N/A   Mostly Cloudy
5:58 PM 38.5 °F 30.7 °F 32.5 °F 79% 29.90 in 6.2 mi East 12.7 mph 20.7 mph N/A   Mostly Cloudy
6:58 PM 37.9 °F 30.0 °F 33.1 °F 83% 29.91 in 6.2 mi ENE 12.7 mph - N/A   Overcast
7:58 PM 36.5 °F 28.7 °F 32.2 °F 84% 29.92 in 6.2 mi ENE 11.5 mph - N/A   Mostly Cloudy
8:58 PM 36.0 °F 28.0 °F 30.9 °F 82% 29.94 in 6.2 mi NE 11.5 mph - N/A   Partly Cloudy
9:12 PM 35.6 °F 27.1 °F 32.0 °F 87% 29.92 in 6.2 mi NE 12.7 mph - N/A   Mostly Cloudy
9:58 PM 36.0 °F 27.5 °F 31.6 °F 84% 29.96 in 6.2 mi ENE 12.7 mph - N/A   Overcast
10:28 PM 35.6 °F 27.5 °F 32.0 °F 87% 29.94 in 6.2 mi ENE 11.5 mph - N/A   Mostly Cloudy
10:32 PM 35.6 °F 26.6 °F 32.0 °F 87% 29.94 in 6.2 mi ENE 13.8 mph - N/A   Scattered Clouds
10:45 PM 35.6 °F 26.6 °F 32.0 °F 87% 29.95 in 6.2 mi NE 13.8 mph - N/A   Mostly Cloudy
10:58 PM 36.0 °F 27.5 °F 31.3 °F 83% 29.97 in 6.2 mi ENE 12.7 mph - N/A   Mostly Cloudy
11:15 PM 35.6 °F 26.2 °F 32.0 °F 87% 29.95 in 6.2 mi NE 15.0 mph - N/A   Scattered Clouds
11:43 PM 35.6 °F 26.2 °F 32.0 °F 87% 29.96 in 6.2 mi ENE 15.0 mph - N/A   Mostly Cloudy
11:58 PM 35.4 °F 27.3 °F 31.1 °F 84% 29.99 in 6.2 mi ENE 11.5 mph 20.7 mph N/A   Overcast